Location: Home
(42.5358°N, 72.7383°W)
Time: 17:24:26
(UTC-05:00)

SR - Pass Details

Date: 13 December 2021
Orbit: 582 x 872 km, 66.7° (Epoch: 20 January)

Event Time Altitude Azimuth Distance (km) Brightness Sun altitude
Exits shadow 05:52:19 15° 329° (NNW) 1,642 ? -14.2°
Maximum altitude 05:55:55 88° 238° (WSW) 635 ? -13.6°
Drops below altitude 10° 06:00:35 10° 152° (SSE) 2,080 ? -12.8°
Sets 06:02:59 0° 152° (SSE) 3,037 ? -12.3°
